Terminal Aerodrome Forecast
Issued by NWS Shreveport, LA

Home | Current Version | Previous Version | Text Only | Print | Product List | Glossary On
Versions: 1 2 3 4 5 6 7 8 9 10 11 12 13 14 15 16 17 18 19 20
000
FTUS44 KSHV 231100 CCA
TAFMLU
TAF COR
KMLU 231156Z 2312/2412 00000KT 5SM BR SKC
      TEMPO 2312/2313 1/4SM FG
     FM231500 10005KT P6SM FEW045
     FM240000 13004KT P6SM SKC=

USA.gov is the U.S. government's official web portal to all federal, state and local government web resources and services.